Location: Unspecified
(0.0000°N, 0.0000°E)
Time: 01:30:38
(UTC+00:00)

Kosmos-1506 - Pass Details

Date: 11 June 2023
Orbit: 946 x 1007 km, 82.9° (Epoch: 25 September)

Event Time Altitude Azimuth Distance (km) Brightness Sun altitude
Rises 19:38:46 0° 346° (NNW) 3,619 9.0 -22.7°
Reaches altitude 10° 19:41:19 10° 342° (NNW) 2,670 8.3 -23.2°
Maximum altitude 19:47:11 51° 267° (W) 1,173 6.2 -24.6°
Drops below altitude 10° 19:53:04 10° 192° (SSW) 2,666 7.6 -25.9°
Enters shadow 19:53:29 - 191° (S) 2,816 7.8 -26.0°
